Location: �perlecques
(50.8057°N, 2.1521°E)
Time: 18:33:10
(UTC+00:00)

KKS-1 - Pass Details

Date: 09 April 2023
Orbit: 633 x 644 km, 98.2° (Epoch: 03 June)

Event Time Altitude Azimuth Distance (km) Brightness Sun altitude
Rises 23:47:17 0° 5° (N) 2,945 ? -31.4°
Reaches altitude 10° 23:49:49 10° 351° (N) 2,032 ? -31.4°
Enters shadow 23:52:42 23° 311° (NW) 1,366 ? -31.4°
